• In Russia
  • List of Countries
  • For 7 days
  • Water Temperature
  • Satellite Maps
  • Weather Map
  • Weather Widgets
  • user-avatar
    Login

    Hourly Weather Kovylovka

    Today, 24 March, Sunday

    Time Temperature Precipitation Wind Pressure Humidity
    00:00 -4°C° 0 mm 0 mps 749 mmHg 94%
    01:00 -4°C° 0 mm 0 mps 750 mmHg 93%
    02:00 -4°C° 0 mm 0 mps 750 mmHg 93%
    03:00 -4°C° 0 mm 0 mps 750 mmHg 92%
    04:00 -3°C° 0 mm 1 mps 749 mmHg 87%
    05:00 -3°C° 0 mm 1 mps 750 mmHg 86%
    06:00 -3°C° 0 mm 1 mps 750 mmHg 84%
    07:00 -3°C° 0 mm 1 mps 750 mmHg 83%
    08:00 -1°C° 0 mm 1 mps 750 mmHg 88%
    09:00 0°C° 0 mm 1 mps 750 mmHg 92%
    10:00 +1°C° 0 mm 0 mps 750 mmHg 99%
    11:00 +2°C° 0 mm 1 mps 749 mmHg 99%
    12:00 +3°C° 0 mm 1 mps 749 mmHg 99%
    13:00 +3°C° 0 mm 1 mps 749 mmHg 99%
    14:00 +3°C° 0 mm 1 mps 749 mmHg 99%
    15:00 +3°C° 0 mm 1 mps 749 mmHg 99%
    16:00 +2°C° 0 mm 1 mps 748 mmHg 100%
    17:00 +1°C° 0 mm 2 mps 748 mmHg 97%
    18:00 +1°C° 0 mm 2 mps 747 mmHg 94%
    19:00 +1°C° 0 mm 2 mps 747 mmHg 91%
    20:00 0°C° 0 mm 3 mps 747 mmHg 88%
    21:00 0°C° 0 mm 4 mps 746 mmHg 85%
    22:00 0°C° 0 mm 5 mps 746 mmHg 82%
    23:00 -1°C° 0 mm 6 mps 745 mmHg 85%

    Tomorrow, 25 March, Monday

    Time Temperature Precipitation Wind Pressure Humidity
    00:00 -1°C° 0 mm 7 mps 745 mmHg 87%
    01:00 0°C° 0 mm 7 mps 744 mmHg 90%
    02:00 0°C° 0.1 mm 7 mps 743 mmHg 92%
    03:00 0°C° 0.1 mm 7 mps 742 mmHg 94%
    04:00 0°C° 0.1 mm 7 mps 741 mmHg 96%
    05:00 0°C° 0.7 mm 8 mps 740 mmHg 96%
    06:00 0°C° 0.7 mm 8 mps 740 mmHg 96%
    07:00 +1°C° 0.7 mm 9 mps 739 mmHg 96%
    08:00 0°C° 1.5 mm 8 mps 739 mmHg 97%
    09:00 0°C° 1.5 mm 7 mps 739 mmHg 97%
    10:00 0°C° 1.5 mm 7 mps 739 mmHg 98%
    11:00 -1°C° 1.3 mm 6 mps 739 mmHg 97%
    12:00 -2°C° 1.3 mm 6 mps 739 mmHg 95%
    13:00 -1°C° 1.3 mm 5 mps 740 mmHg 94%
    14:00 -1°C° 0.3 mm 5 mps 740 mmHg 94%
    15:00 -2°C° 0.3 mm 6 mps 740 mmHg 94%
    16:00 -2°C° 0.3 mm 6 mps 741 mmHg 94%
    17:00 -1°C° 0 mm 5 mps 741 mmHg 93%
    18:00 -2°C° 0 mm 4 mps 741 mmHg 92%
    19:00 -3°C° 0 mm 4 mps 742 mmHg 91%
    20:00 -3°C° 0 mm 4 mps 742 mmHg 91%
    21:00 -3°C° 0 mm 4 mps 742 mmHg 91%
    22:00 -4°C° 0 mm 4 mps 742 mmHg 92%
    23:00 -4°C° 0 mm 4 mps 742 mmHg 93%

    Day after tomorrow, 26 March, Tuesday

    Time Temperature Precipitation Wind Pressure Humidity
    00:00 -5°C° 0 mm 4 mps 743 mmHg 93%
    01:00 -7°C° 0 mm 4 mps 743 mmHg 94%
    02:00 -7°C° 0 mm 4 mps 743 mmHg 95%
    03:00 -5°C° 0 mm 4 mps 744 mmHg 95%
    04:00 -5°C° 0 mm 4 mps 744 mmHg 96%
    05:00 -5°C° 0 mm 3 mps 745 mmHg 96%
    06:00 -4°C° 0 mm 3 mps 745 mmHg 96%
    07:00 -4°C° 0 mm 3 mps 746 mmHg 96%
    08:00 -4°C° 0 mm 3 mps 746 mmHg 96%
    09:00 -3°C° 0 mm 4 mps 747 mmHg 96%
    10:00 -3°C° 0 mm 4 mps 747 mmHg 96%
    11:00 -3°C° 0 mm 4 mps 748 mmHg 96%
    12:00 -3°C° 0 mm 4 mps 748 mmHg 96%
    13:00 -3°C° 0 mm 4 mps 748 mmHg 96%
    14:00 -1°C° 0 mm 3 mps 748 mmHg 94%
    15:00 -1°C° 0 mm 3 mps 749 mmHg 93%
    16:00 -1°C° 0 mm 2 mps 749 mmHg 92%
    17:00 -2°C° 0 mm 2 mps 749 mmHg 92%
    18:00 -2°C° 0 mm 2 mps 749 mmHg 92%
    19:00 -2°C° 0 mm 2 mps 749 mmHg 92%
    20:00 -3°C° 0 mm 2 mps 750 mmHg 92%
    21:00 -2°C° 0 mm 1 mps 750 mmHg 93%
    22:00 -2°C° 0 mm 1 mps 750 mmHg 93%
    23:00 -5°C° 0 mm 2 mps 750 mmHg 93%

    27 March, Wednesday

    Time Temperature Precipitation Wind Pressure Humidity
    00:00 -5°C° 0 mm 2 mps 750 mmHg 94%
    01:00 -6°C° 0 mm 2 mps 750 mmHg 94%
    02:00 -6°C° 0 mm 2 mps 750 mmHg 93%
    03:00 -6°C° 0 mm 2 mps 750 mmHg 93%
    04:00 -6°C° 0 mm 2 mps 750 mmHg 92%
    05:00 -6°C° 0 mm 2 mps 750 mmHg 91%
    06:00 -5°C° 0 mm 2 mps 750 mmHg 90%
    07:00 -5°C° 0 mm 2 mps 750 mmHg 89%
    08:00 -4°C° 0 mm 2 mps 750 mmHg 88%
    09:00 -2°C° 0 mm 3 mps 750 mmHg 87%
    10:00 -1°C° 0 mm 3 mps 750 mmHg 87%
    11:00 0°C° 0 mm 3 mps 750 mmHg 88%
    12:00 -1°C° 0 mm 4 mps 750 mmHg 89%
    13:00 0°C° 0 mm 4 mps 750 mmHg 90%
    14:00 +1°C° 0 mm 3 mps 750 mmHg 88%
    15:00 +1°C° 0 mm 3 mps 749 mmHg 86%
    16:00 +1°C° 0 mm 3 mps 749 mmHg 85%
    17:00 0°C° 0 mm 3 mps 749 mmHg 83%
    18:00 -1°C° 0 mm 2 mps 749 mmHg 82%
    19:00 -2°C° 0 mm 2 mps 749 mmHg 81%
    20:00 -2°C° 0 mm 2 mps 749 mmHg 79%
    21:00 -2°C° 0 mm 2 mps 749 mmHg 77%
    22:00 -2°C° 0 mm 2 mps 749 mmHg 75%
    23:00 -2°C° 0 mm 2 mps 748 mmHg 75%

    28 March, Thursday

    Time Temperature Precipitation Wind Pressure Humidity
    00:00 -3°C° 0 mm 2 mps 748 mmHg 75%
    01:00 -3°C° 0 mm 2 mps 748 mmHg 75%
    02:00 -3°C° 0 mm 2 mps 747 mmHg 75%
    03:00 -1°C° 0 mm 1 mps 747 mmHg 76%
    04:00 -1°C° 0 mm 1 mps 747 mmHg 77%
    05:00 -1°C° 0 mm 1 mps 746 mmHg 77%
    06:00 -1°C° 0 mm 1 mps 746 mmHg 77%
    07:00 -1°C° 0 mm 1 mps 745 mmHg 76%
    08:00 0°C° 0 mm 1 mps 745 mmHg 77%
    09:00 +1°C° 0 mm 1 mps 745 mmHg 77%
    10:00 +2°C° 0 mm 1 mps 745 mmHg 77%
    11:00 +3°C° 0 mm 1 mps 744 mmHg 79%
    12:00 +3°C° 0 mm 1 mps 744 mmHg 80%
    13:00 +4°C° 0 mm 1 mps 744 mmHg 82%
    14:00 +4°C° 0 mm 1 mps 743 mmHg 81%
    15:00 +4°C° 0 mm 1 mps 743 mmHg 81%
    16:00 +4°C° 0 mm 1 mps 743 mmHg 80%
    17:00 +3°C° 0 mm 1 mps 743 mmHg 81%
    18:00 +1°C° 0 mm 0 mps 742 mmHg 82%
    19:00 0°C° 0 mm 0 mps 742 mmHg 82%
    20:00 0°C° 0 mm 0 mps 742 mmHg 81%
    21:00 +1°C° 0 mm 1 mps 742 mmHg 80%
    22:00 +1°C° 0 mm 1 mps 742 mmHg 79%
    23:00 +1°C° 0 mm 1 mps 742 mmHg 77%

    29 March, Friday

    Time Temperature Precipitation Wind Pressure Humidity
    00:00 +1°C° 0 mm 1 mps 741 mmHg 76%
    01:00 +1°C° 0 mm 1 mps 741 mmHg 75%
    02:00 +1°C° 0.1 mm 1 mps 741 mmHg 76%
    03:00 -1°C° 0.1 mm 2 mps 741 mmHg 76%
    04:00 -1°C° 0.1 mm 2 mps 741 mmHg 77%
    05:00 -1°C° 0 mm 3 mps 740 mmHg 83%
    06:00 -1°C° 0 mm 3 mps 740 mmHg 89%
    07:00 -2°C° 0 mm 4 mps 740 mmHg 95%
    08:00 -2°C° 0.2 mm 4 mps 741 mmHg 95%
    09:00 -1°C° 0.2 mm 4 mps 741 mmHg 94%
    10:00 -1°C° 0.2 mm 5 mps 741 mmHg 93%
    11:00 -3°C° 0.2 mm 6 mps 741 mmHg 91%
    12:00 -3°C° 0.2 mm 7 mps 742 mmHg 89%
    13:00 -4°C° 0.2 mm 8 mps 742 mmHg 87%
    14:00 -4°C° 0.1 mm 8 mps 742 mmHg 86%
    15:00 -3°C° 0.1 mm 7 mps 743 mmHg 84%
    16:00 -3°C° 0.1 mm 7 mps 743 mmHg 83%
    17:00 -3°C° 0 mm 6 mps 744 mmHg 85%
    18:00 -4°C° 0 mm 5 mps 744 mmHg 87%
    19:00 -5°C° 0 mm 5 mps 745 mmHg 88%
    20:00 -4°C° 0 mm 4 mps 745 mmHg 88%
    21:00 -5°C° 0 mm 3 mps 746 mmHg 88%
    22:00 -5°C° 0 mm 3 mps 746 mmHg 88%
    23:00 -5°C° 0 mm 2 mps 746 mmHg 90%
    Show more